CW0121 Weather Reports


Display with metric or nautical units.
time (UTC)temp
F
wind
direction
speed
MPH
gust
MPH
rain 1hr
in
rain 24hr
in
rain mn
in
humidity
%
barometer
mb
20260510165510 53 59 7.0 15.0 0.00 0.00 0.00 42 1023.2
20260510165004 53 41 9.0 14.0 0.00 0.00 0.00 40 1023.2
20260510164557 53 15 4.0 14.0 0.00 0.00 0.00 43 1022.5
20260510164518 53 32 4.0 14.0 0.00 0.00 0.00 42 1023.1
20260510164006 53 52 8.0 14.0 0.00 0.00 0.00 41 1023.1
20260510163503 53 5 7.0 14.0 0.00 0.00 0.00 41 1023.1
20260510163059 53 11 10.0 14.0 0.00 0.00 0.00 41 1022.4
20260510163018 53 30 8.0 14.0 0.00 0.00 0.00 41 1023.0
20260510162506 53 12 5.0 12.0 0.00 0.00 0.00 45 1023.0
20260510162008 53 303 8.0 17.0 0.00 0.00 0.00 42 1022.9
20260510161551 53 51 7.0 17.0 0.00 0.00 0.00 43 1022.4
20260510161522 53 19 8.0 17.0 0.00 0.00 0.00 42 1023.0
20260510161013 52 51 4.0 14.0 0.00 0.00 0.00 44 1022.8
20260510160508 52 39 7.0 14.0 0.00 0.00 0.00 45 1022.8
20260510160049 52 27 6.0 13.0 0.00 0.00 0.00 44 1022.2
20260510160025 52 19 8.0 13.0 0.00 0.00 0.00 44 1022.7
20260510155509 52 75 4.0 12.0 0.00 0.00 0.00 44 1022.6
20260510155011 51 331 6.0 11.0 0.00 0.00 0.00 46 1022.6
20260510154547 51 45 7.0 12.0 0.00 0.00 0.00 47 1022.0
20260510154543 51 32 6.0 13.0 0.00 0.00 0.00 47 1022.7
20260510154014 50 66 8.0 13.0 0.00 0.00 0.00 47 1022.6
20260510153508 50 49 9.0 13.0 0.00 0.00 0.00 47 1022.5
20260510153049 51 72 8.0 13.0 0.00 0.00 0.00 48 1022.0
20260510153021 51 51 8.0 12.0 0.00 0.00 0.00 48 1022.5
20260510152505 51 347 7.0 12.0 0.00 0.00 0.00 50 1022.5
20260510152006 50 46 8.0 15.0 0.00 0.00 0.00 51 1022.5
20260510151547 50 35 7.0 15.0 0.00 0.00 0.00 50 1022.0
20260510151518 50 27 7.0 15.0 0.00 0.00 0.00 49 1022.6
20260510151006 50 26 7.0 12.0 0.00 0.00 0.00 51 1022.7
20260510150509 50 67 6.0 11.0 0.00 0.00 0.00 51 1022.6
20260510150043 50 67 5.0 11.0 0.00 0.00 0.00 52 1022.1
20260510150023 50 54 5.0 10.0 0.00 0.00 0.00 51 1022.6
20260510145512 50 60 6.0 10.0 0.00 0.00 0.00 51 1022.7
20260510145010 49 15 7.0 12.0 0.00 0.00 0.00 51 1022.6
20260510144542 49 49 6.0 12.0 0.00 0.00 0.00 53 1021.9
20260510144529 49 32 8.0 13.0 0.00 0.00 0.00 52 1022.6
20260510144015 49 54 7.0 13.0 0.00 0.00 0.00 53 1022.6
20260510143511 48 26 5.0 15.0 0.00 0.00 0.00 54 1022.5
20260510143035 48 47 6.0 15.0 0.00 0.00 0.00 54 1021.7
20260510143025 48 56 7.0 15.0 0.00 0.00 0.00 54 1022.5
20260510142509 48 32 6.0 15.0 0.00 0.00 0.00 55 1022.5
20260510142006 47 39 8.0 15.0 0.00 0.00 0.00 55 1022.4
20260510141536 47 45 6.0 14.0 0.00 0.00 0.00 57 1021.7
20260510141515 47 62 6.0 14.0 0.00 0.00 0.00 57 1022.4
20260510141006 47 58 8.0 14.0 0.00 0.00 0.00 55 1022.3
20260510140506 46 53 9.0 14.0 0.00 0.00 0.00 56 1022.3
20260510140029 46 24 7.0 12.0 0.00 0.00 0.00 59 1021.7
20260510140019 46 8 7.0 12.0 0.00 0.00 0.00 58 1022.3
20260510135507 46 46 8.0 13.0 0.00 0.00 0.00 60 1022.2
20260510135009 45 39 8.0 13.0 0.00 0.00 0.00 62 1022.2
20260510134526 45 34 7.0 12.0 0.00 0.00 0.00 64 1021.7
20260510134524 45 42 8.0 12.0 0.00 0.00 0.00 63 1022.2
20260510134008 44 70 8.0 12.0 0.00 0.00 0.00 63 1022.2
20260510133507 43 30 7.0 11.0 0.00 0.00 0.00 64 1022.1
20260510133028 43 52 7.0 10.0 0.00 0.00 0.00 67 1022.1
20260510133021 43 25 6.0 10.0 0.00 0.00 0.00 67 1021.5
20260510132511 42 52 5.0 10.0 0.00 0.00 0.00 69 1022.0
20260510132015 42 15 4.0 8.0 0.00 0.00 0.00 70 1022.0
20260510131541 41 23 6.0 8.0 0.00 0.00 0.00 70 1022.0
20260510131517 41 33 5.0 8.0 0.00 0.00 0.00 71 1021.4
20260510131010 41 22 4.0 8.0 0.00 0.00 0.00 72 1021.8
20260510130509 40 76 5.0 11.0 0.00 0.00 0.00 72 1021.7
20260510130016 39 30 5.0 11.0 0.00 0.00 0.00 74 1021.6
20260510125507 39 75 6.0 10.0 0.00 0.00 0.00 74 1021.6
20260510125008 39 31 6.0 9.0 0.00 0.00 0.00 74 1021.6
20260510124522 38 27 5.0 10.0 0.00 0.00 0.00 77 1021.5
20260510124514 38 46 4.0 10.0 0.00 0.00 0.00 77 1020.8
20260510124011 37 333 5.0 10.0 0.00 0.00 0.00 78 1021.4
20260510123510 37 17 6.0 9.0 0.00 0.00 0.00 79 1021.2
20260510123024 37 23 4.0 8.0 0.00 0.00 0.00 80 1021.1
20260510123010 37 52 4.0 8.0 0.00 0.00 0.00 81 1020.5
20260510122510 37 24 3.0 7.0 0.00 0.00 0.00 80 1021.0
20260510122011 36 11 4.0 6.0 0.00 0.00 0.00 79 1020.9
20260510121530 35 14 3.0 5.0 0.00 0.00 0.00 80 1020.8
20260510121507 36 338 2.0 5.0 0.00 0.00 0.00 80 1020.2
20260510121007 35 37 2.0 5.0 0.00 0.00 0.00 80 1020.7
20260510120504 34 352 2.0 5.0 0.00 0.00 0.00 80 1020.7
20260510120015 33 321 1.0 3.0 0.00 0.00 0.00 80 1020.6
20260510120008 33 321 0.0 3.0 0.00 0.00 0.00 80 1019.9
20260510115503 33 330 2.0 3.0 0.00 0.00 0.00 80 1020.5
20260510115011 33 334 2.0 3.0 0.00 0.00 0.00 81 1020.2
20260510114517 32 20 1.0 3.0 0.00 0.00 0.00 82 1020.2
20260510114508 32 20 1.0 3.0 0.00 0.00 0.00 82 1019.5
20260510114010 31 329 1.0 3.0 0.00 0.00 0.00 82 1020.2
20260510113508 31 321 1.0 2.0 0.00 0.00 0.00 83 1020.0
20260510113021 31 311 1.0 1.0 0.00 0.00 0.00 83 1020.0
20260510113001 31 311 0.0 1.0 0.00 0.00 0.00 84 1019.3
20260510112506 30 245 0.0 0.0 0.00 0.00 0.00 84 1019.8
20260510112007 29 245 0.0 0.0 0.00 0.00 0.00 83 1019.8
20260510111602 29 245 0.0 0.0 0.00 0.00 0.00 84 1019.1
20260510111507 29 245 0.0 0.0 0.00 0.00 0.00 83 1019.6
20260510111003 29 245 0.0 1.0 0.00 0.00 0.00 82 1019.6
20260510110504 29 245 0.0 1.0 0.00 0.00 0.00 83 1019.6
20260510110058 29 245 0.0 1.0 0.00 0.00 0.00 83 1019.1
20260510110014 29 245 0.0 1.0 0.00 0.00 0.00 82 1019.6
20260510105505 29 196 1.0 2.0 0.00 0.00 0.00 81 1019.6
20260510105005 30 198 0.0 2.0 0.00 0.00 0.00 80 1019.5
20260510104554 31 189 1.0 2.0 0.00 0.00 0.00 80 1018.9
20260510104514 31 198 1.0 2.0 0.00 0.00 0.00 80 1019.5
20260510104004 31 331 0.0 1.0 0.00 0.00 0.00 81 1019.5
20260510103504 31 266 0.0 1.0 0.00 0.00 0.00 81 1019.3
20260510103052 31 266 0.0 1.0 0.00 0.00 0.00 80 1018.6
20260510103021 31 266 0.0 1.0 0.00 0.00 0.00 80 1019.2
20260510102509 31 266 0.0 1.0 0.00 0.00 0.00 80 1019.2
20260510102010 31 266 0.0 1.0 0.00 0.00 0.00 79 1019.2
20260510101551 31 250 0.0 1.0 0.00 0.00 0.00 81 1018.3
20260510101528 31 250 0.0 1.0 0.00 0.00 0.00 80 1019.1
20260510101004 31 233 0.0 1.0 0.00 0.00 0.00 80 1019.1
20260510100504 31 233 0.0 1.0 0.00 0.00 0.00 79 1019.0
20260510100110 31 219 0.0 2.0 0.00 0.00 0.00 79 1018.1
20260510100009 31 219 0.0 2.0 0.00 0.00 0.00 79 1019.0
20260510095510 31 219 1.0 2.0 0.00 0.00 0.00 78 1018.8
20260510095006 32 194 2.0 2.0 0.00 0.00 0.00 78 1018.8
20260510094549 32 190 1.0 2.0 0.00 0.00 0.00 79 1017.8
20260510094512 32 180 0.0 2.0 0.00 0.00 0.00 78 1018.8
20260510094006 31 190 1.0 2.0 0.00 0.00 0.00 78 1018.8
20260510093507 31 214 1.0 2.0 0.00 0.00 0.00 79 1018.7
20260510093049 31 160 0.0 2.0 0.00 0.00 0.00 79 1018.0
20260510093023 31 160 0.0 2.0 0.00 0.00 0.00 78 1018.7
20260510092507 31 198 1.0 4.0 0.00 0.00 0.00 78 1018.6
20260510092007 32 207 3.0 4.0 0.00 0.00 0.00 77 1018.6
20260510091541 32 153 1.0 4.0 0.00 0.00 0.00 77 1017.6
20260510091528 32 190 2.0 4.0 0.00 0.00 0.00 76 1018.5
20260510091008 32 180 2.0 4.0 0.00 0.00 0.00 76 1018.4
20260510090509 33 191 2.0 3.0 0.00 0.00 0.00 76 1018.3
20260510090039 33 198 0.0 3.0 0.00 0.03 0.00 76 1017.4
20260510090028 33 212 1.0 3.0 0.00 0.00 0.00 76 1018.3
20260510085509 33 206 2.0 3.0 0.00 0.00 0.00 78 1018.2
20260510085002 33 146 0.0 2.0 0.00 0.00 0.00 79 1018.2
20260510084538 33 101 0.0 2.0 0.00 0.03 0.00 79 1017.3
20260510084514 33 118 0.0 2.0 0.00 0.00 0.00 78 1018.1
20260510084003 33 148 1.0 3.0 0.00 0.00 0.00 77 1018.0
20260510083511 33 134 1.0 4.0 0.00 0.01 0.00 76 1018.0
20260510083043 33 163 2.0 4.0 0.00 0.03 0.00 78 1016.9
20260510083013 33 128 3.0 4.0 0.00 0.01 0.00 77 1017.9
20260510082503 33 158 1.0 3.0 0.00 0.01 0.00 78 1017.8
20260510082003 33 150 2.0 4.0 0.00 0.02 0.00 77 1017.9
20260510081534 34 160 2.0 4.0 0.00 0.03 0.00 78 1016.8
20260510081517 34 147 2.0 4.0 0.00 0.02 0.00 78 1017.8
20260510081007 34 165 1.0 4.0 0.00 0.02 0.00 78 1017.9
20260510080507 34 151 3.0 4.0 0.00 0.03 0.00 77 1017.8
20260510080028 35 141 1.0 4.0 0.00 0.03 0.00 77 1016.7
20260510075508 35 155 3.0 4.0 0.00 0.03 0.00 77 1017.8
20260510075006 35 129 1.0 2.0 0.00 0.03 0.00 76 1017.8
20260510074527 36 148 1.0 1.0 0.00 0.03 0.00 75 1017.8
20260510074525 36 148 0.0 1.0 0.00 0.03 0.00 76 1016.7
20260510074011 36 113 0.0 2.0 0.00 0.03 0.00 75 1017.7
20260510073503 37 89 1.0 2.0 0.00 0.03 0.00 74 1017.7
20260510073023 37 73 0.0 3.0 0.00 0.03 0.00 75 1016.6
20260510073011 37 73 0.0 3.0 0.00 0.03 0.00 74 1017.5
20260510072506 37 44 0.0 3.0 0.00 0.03 0.00 74 1017.5
20260510072006 37 152 1.0 2.0 0.00 0.03 0.00 74 1017.4
20260510071533 37 50 0.0 2.0 0.00 0.03 0.00 75 1016.4
20260510071513 37 50 0.0 2.0 0.00 0.03 0.00 74 1017.4
20260510071003 37 144 1.0 3.0 0.00 0.03 0.00 74 1017.4
20260510070506 38 167 2.0 3.0 0.00 0.03 0.00 71 1017.4
20260510070020 38 179 2.0 2.0 0.00 0.03 0.00 71 1017.4
20260510070017 38 168 1.0 2.0 0.00 0.03 0.00 71 1016.3
20260510065506 38 157 1.0 2.0 0.00 0.03 0.00 70 1017.5
20260510065009 38 160 1.0 2.0 0.00 0.03 0.00 68 1017.5
20260510064538 38 134 0.0 2.0 0.00 0.03 0.00 68 1017.5
20260510064517 38 134 0.0 2.0 0.00 0.03 0.00 68 1016.4
20260510064008 38 93 0.0 2.0 0.00 0.03 0.00 68 1017.5
20260510063508 37 162 0.0 2.0 0.00 0.03 0.00 69 1017.4
20260510063027 37 192 1.0 2.0 0.00 0.03 0.00 69 1017.3
20260510063022 37 198 1.0 2.0 0.00 0.03 0.00 69 1016.2
20260510062510 37 206 2.0 2.0 0.00 0.03 0.00 68 1017.3
20260510062011 37 208 2.0 2.0 0.00 0.03 0.00 67 1017.2
20260510061521 37 199 1.0 2.0 0.00 0.03 0.00 68 1016.2
20260510061511 37 207 1.0 2.0 0.00 0.03 0.00 67 1017.2
20260510061008 38 203 1.0 2.0 0.00 0.03 0.00 67 1017.2
20260510060504 38 202 1.0 2.0 0.00 0.03 0.00 67 1017.2
20260510060016 38 197 1.0 2.0 0.00 0.03 0.00 67 1017.2
20260510060010 38 200 1.0 2.0 0.00 0.03 0.00 68 1016.2
20260510055505 38 181 1.0 3.0 0.00 0.03 0.00 67 1017.1
20260510055006 39 187 1.0 3.0 0.00 0.03 0.00 68 1017.2
20260510054522 39 175 1.0 2.0 0.00 0.03 0.00 67 1017.1
20260510054507 39 175 1.0 2.0 0.00 0.03 0.00 67 1016.1
20260510054007 39 200 1.0 1.0 0.00 0.03 0.00 67 1017.1
20260510053511 39 198 1.0 1.0 0.00 0.03 0.00 66 1017.2
20260510053038 39 200 1.0 1.0 0.00 0.03 0.00 65 1017.1
20260510053004 40 200 1.0 1.0 0.00 0.03 0.00 66 1016.0
20260510052510 39 200 1.0 2.0 0.00 0.03 0.00 66 1017.1
20260510052009 39 200 1.0 2.0 0.00 0.03 0.00 68 1017.1
20260510051600 40 200 1.0 2.0 0.00 0.03 0.00 71 1016.0
20260510051537 40 199 1.0 2.0 0.00 0.03 0.00 70 1017.1
20260510051012 40 204 1.0 2.0 0.00 0.03 0.00 69 1017.1
20260510050507 40 200 1.0 2.0 0.00 0.03 0.00 65 1017.1
20260510050100 40 197 0.0 2.0 0.00 0.03 0.03 60 1015.9
20260510050014 40 189 0.0 1.0 0.00 0.03 0.00 59 1017.1
20260510045507 40 189 0.0 2.0 0.00 0.03 0.03 59 1017.0
20260510045007 41 216 0.0 2.0 0.00 0.03 0.03 56 1016.9
20260510044555 42 217 1.0 2.0 0.00 0.03 0.03 55 1015.7
20260510044520 42 217 1.0 2.0 0.00 0.03 0.03 54 1016.8
20260510044006 43 244 0.0 1.0 0.00 0.03 0.03 54 1016.9
20260510043509 44 244 0.0 2.0 0.00 0.03 0.03 53 1016.8
20260510043055 44 244 1.0 2.0 0.00 0.03 0.03 52 1015.6
20260510043022 44 242 1.0 2.0 0.00 0.03 0.03 51 1016.8
20260510042508 45 249 1.0 2.0 0.00 0.03 0.03 50 1016.7
20260510042009 45 248 1.0 1.0 0.00 0.03 0.03 50 1016.8
20260510041550 44 248 1.0 2.0 0.00 0.03 0.03 51 1015.5
20260510041524 44 248 1.0 2.0 0.00 0.03 0.03 51 1016.8
20260510041013 44 246 1.0 2.0 0.00 0.03 0.03 51 1016.8
20260510040508 44 255 2.0 2.0 0.00 0.03 0.03 49 1016.7
20260510040048 45 250 1.0 2.0 0.00 0.03 0.03 49 1015.4
20260510040028 45 250 1.0 2.0 0.00 0.03 0.03 48 1016.8
20260510035509 45 240 2.0 2.0 0.00 0.03 0.03 48 1016.8
20260510035017 46 234 1.0 1.0 0.00 0.03 0.03 47 1016.7
20260510034546 46 236 0.0 0.0 0.00 0.03 0.03 48 1015.2
20260510034514 46 244 0.0 0.0 0.00 0.03 0.03 48 1016.6
20260510034007 47 245 0.0 0.0 0.00 0.03 0.03 45 1016.7
20260510033506 48 5 0.0 0.0 0.00 0.03 0.03 43 1016.7
20260510033107 48 5 0.0 0.0 0.00 0.03 0.03 43 1015.3
20260510033019 49 5 0.0 0.0 0.00 0.03 0.03 42 1016.6
20260510032507 49 5 0.0 0.0 0.00 0.03 0.03 42 1016.7
20260510032012 49 5 0.0 0.0 0.00 0.03 0.03 42 1016.6
20260510031550 49 5 0.0 0.0 0.00 0.03 0.03 42 1015.3
20260510031528 49 5 0.0 0.0 0.00 0.03 0.03 42 1016.7
20260510031009 49 5 0.0 0.0 0.00 0.03 0.03 42 1016.7
20260510030512 49 5 0.0 0.0 0.00 0.03 0.03 42 1016.6
20260510030043 50 5 0.0 0.0 0.00 0.03 0.03 42 1015.1
20260510030023 50 5 0.0 0.0 0.00 0.03 0.03 41 1016.6
20260510025507 50 5 0.0 0.0 0.00 0.03 0.03 40 1016.5
20260510025013 51 5 0.0 0.0 0.00 0.03 0.03 39 1016.5
20260510024546 51 5 0.0 0.0 0.00 0.03 0.03 40 1014.8
20260510024530 51 5 0.0 0.0 0.00 0.03 0.03 39 1016.3
20260510024009 51 5 0.0 0.0 0.00 0.03 0.03 38 1016.3
20260510023511 52 5 0.0 1.0 0.00 0.03 0.03 38 1016.2
20260510023040 52 5 0.0 1.0 0.00 0.03 0.03 38 1014.7
20260510023026 52 5 0.0 1.0 0.00 0.03 0.03 38 1016.1
20260510022509 52 5 0.0 1.0 0.00 0.03 0.03 38 1016.1
20260510022009 53 5 0.0 2.0 0.00 0.03 0.03 37 1016.0
20260510021537 53 5 0.0 2.0 0.00 0.03 0.03 37 1014.4
20260510021525 53 5 1.0 2.0 0.00 0.03 0.03 37 1016.0
20260510021007 53 11 1.0 3.0 0.00 0.03 0.03 36 1015.9
20260510020505 54 10 1.0 3.0 0.00 0.03 0.03 36 1015.9
20260510020036 54 334 2.0 4.0 0.00 0.03 0.03 36 1014.3
20260510020028 54 350 2.0 4.0 0.00 0.03 0.03 36 1015.8
20260510015510 54 341 2.0 4.0 0.00 0.03 0.03 35 1015.8
20260510015009 55 333 2.0 4.0 0.00 0.03 0.03 35 1015.7
20260510014535 55 338 2.0 4.0 0.00 0.03 0.03 35 1014.1
20260510014525 55 19 3.0 5.0 0.00 0.03 0.03 35 1015.7
20260510014010 55 317 2.0 5.0 0.00 0.03 0.03 35 1015.6
20260510013510 56 342 3.0 8.0 0.00 0.03 0.03 34 1015.6
20260510013032 56 350 3.0 8.0 0.00 0.03 0.03 34 1013.9
20260510013027 56 307 3.0 8.0 0.00 0.03 0.03 33 1015.6
20260510012510 56 349 4.0 8.0 0.00 0.03 0.03 33 1015.5
20260510012009 56 5 3.0 10.0 0.00 0.03 0.03 34 1015.5
20260510011542 57 1 4.0 10.0 0.00 0.03 0.03 33 1013.9
20260510011526 57 338 4.0 10.0 0.00 0.03 0.03 33 1015.5
20260510011007 57 333 4.0 9.0 0.00 0.03 0.03 33 1015.3
20260510010508 57 303 6.0 11.0 0.00 0.03 0.03 33 1015.2
20260510010031 57 329 5.0 11.0 0.00 0.03 0.03 34 1013.7
20260510010020 57 318 6.0 11.0 0.00 0.03 0.03 33 1015.2
20260510005506 58 316 5.0 8.0 0.00 0.03 0.03 32 1015.2
20260510005013 58 325 4.0 9.0 0.00 0.03 0.03 30 1015.1
20260510004531 58 27 4.0 11.0 0.00 0.03 0.03 31 1013.6
20260510004527 58 314 4.0 11.0 0.00 0.03 0.03 30 1015.1
20260510004008 58 288 6.0 12.0 0.00 0.03 0.03 30 1015.1
20260510003509 58 323 7.0 12.0 0.00 0.03 0.03 30 1015.1
20260510003055 58 302 5.0 11.0 0.00 0.03 0.03 30 1013.6
20260510003029 58 296 5.0 11.0 0.00 0.03 0.03 30 1015.0
20260510002508 59 319 6.0 13.0 0.00 0.03 0.03 29 1015.1
20260510002010 59 330 6.0 14.0 0.00 0.03 0.03 30 1015.0
20260510001531 59 343 6.0 14.0 0.00 0.03 0.03 30 1013.5
20260510001526 59 335 7.0 14.0 0.00 0.03 0.03 29 1014.9
20260510001012 59 311 8.0 16.0 0.00 0.03 0.03 29 1014.9
20260510000509 59 334 9.0 16.0 0.00 0.03 0.03 29 1014.9
20260510000028 60 307 8.0 15.0 0.00 0.03 0.03 28 1014.9
20260510000026 59 300 7.0 15.0 0.00 0.03 0.03 29 1013.4
20260509235506 60 302 9.0 15.0 0.00 0.03 0.03 28 1014.8
20260509235009 60 344 7.0 13.0 0.00 0.03 0.03 28 1014.9
20260509234529 60 20 7.0 14.0 0.00 0.03 0.03 29 1013.3
20260509234520 60 345 8.0 14.0 0.00 0.03 0.03 28 1014.8
20260509234009 60 304 8.0 17.0 0.00 0.03 0.03 28 1014.8
20260509233511 60 307 10.0 17.0 0.00 0.03 0.03 28 1014.8
20260509233025 60 293 7.0 13.0 0.00 0.03 0.03 27 1014.8
20260509232510 60 310 5.0 18.0 0.00 0.03 0.03 28 1014.8
20260509232010 60 333 8.0 19.0 0.00 0.03 0.03 28 1014.8
20260509231530 60 313 11.0 19.0 0.00 0.03 0.03 29 1013.2
20260509231527 60 346 11.0 19.0 0.00 0.03 0.03 27 1014.7
20260509231009 60 333 6.0 17.0 0.00 0.03 0.03 27 1014.7
20260509230510 60 321 8.0 17.0 0.00 0.03 0.03 27 1014.8
20260509230030 60 324 7.0 15.0 0.00 0.03 0.03 29 1013.0
20260509230028 60 307 7.0 15.0 0.00 0.03 0.03 29 1014.6
20260509225509 60 19 8.0 14.0 0.00 0.03 0.03 28 1014.6
20260509225009 60 335 7.0 15.0 0.00 0.03 0.03 29 1014.5
20260509224528 60 340 9.0 15.0 0.00 0.03 0.03 28 1014.5
20260509224524 60 342 8.0 15.0 0.00 0.03 0.03 29 1012.9
20260509224007 60 307 6.0 18.0 0.00 0.03 0.03 28 1014.4
20260509223507 60 330 7.0 18.0 0.00 0.03 0.03 28 1014.5
20260509223024 60 327 9.0 20.0 0.00 0.03 0.03 28 1014.4
20260509223022 60 346 8.0 20.0 0.00 0.03 0.03 29 1012.9
20260509222509 60 345 12.0 20.0 0.00 0.03 0.03 28 1014.4
20260509222008 60 2 8.0 15.0 0.00 0.03 0.03 29 1014.4
20260509221527 60 337 8.0 17.0 0.00 0.03 0.03 28 1014.5
20260509221519 60 1 7.0 16.0 0.00 0.03 0.03 29 1013.0
20260509221010 60 334 9.0 17.0 0.00 0.03 0.03 29 1014.5
20260509220503 59 318 10.0 18.0 0.00 0.03 0.03 29 1014.4
20260509220016 59 291 9.0 18.0 0.00 0.03 0.03 31 1012.9
20260509220011 59 336 10.0 18.0 0.00 0.03 0.03 29 1014.5
20260509215511 59 269 10.0 16.0 0.00 0.03 0.03 28 1014.4
20260509215006 59 340 9.0 16.0 0.00 0.03 0.03 29 1014.5
20260509214516 59 10 5.0 19.0 0.00 0.03 0.03 30 1014.5
20260509214007 59 2 11.0 19.0 0.00 0.03 0.03 31 1014.5
20260509213505 59 18 6.0 13.0 0.00 0.03 0.03 30 1014.5
20260509213022 59 313 8.0 13.0 0.00 0.03 0.03 32 1014.6
20260509213013 59 301 7.0 13.0 0.00 0.03 0.03 31 1013.0
20260509212507 59 319 7.0 21.0 0.00 0.03 0.03 31 1014.7
20260509212010 59 317 15.0 21.0 0.00 0.03 0.03 30 1014.6
20260509211523 59 281 8.0 19.0 0.00 0.03 0.03 31 1014.6
20260509211512 59 309 7.0 19.0 0.00 0.03 0.03 32 1013.0
20260509211004 59 353 6.0 16.0 0.00 0.03 0.03 32 1014.6
20260509210503 59 20 5.0 20.0 0.00 0.03 0.03 31 1014.6
20260509210014 59 319 8.0 20.0 0.00 0.03 0.03 32 1012.9
20260509210010 59 321 9.0 20.0 0.00 0.03 0.03 31 1014.6
20260509205502 59 327 10.0 17.0 0.00 0.03 0.03 32 1014.7
20260509205002 58 356 8.0 17.0 0.00 0.03 0.03 31 1014.8
20260509204514 58 18 10.0 17.0 0.00 0.03 0.03 31 1014.9
20260509204510 58 319 10.0 17.0 0.00 0.03 0.03 32 1013.0
20260509204006 58 307 8.0 15.0 0.00 0.03 0.03 32 1014.8
20260509203511 58 310 5.0 21.0 0.00 0.03 0.03 32 1014.8
20260509203029 58 300 9.0 21.0 0.00 0.03 0.03 32 1014.9
20260509203008 58 313 8.0 21.0 0.00 0.03 0.03 32 1013.1
20260509202507 57 11 9.0 19.0 0.00 0.03 0.03 31 1014.9
20260509202010 57 293 8.0 17.0 0.00 0.03 0.03 33 1014.8
20260509201526 57 345 7.0 17.0 0.00 0.03 0.03 33 1014.8
20260509201509 57 297 7.0 17.0 0.00 0.03 0.03 35 1013.0
20260509201009 57 327 10.0 15.0 0.00 0.03 0.03 33 1014.7
20260509200510 57 2 4.0 16.0 0.00 0.03 0.03 32 1014.6
20260509200033 57 51 8.0 20.0 0.00 0.03 0.03 33 1014.8
20260509200008 57 30 8.0 20.0 0.00 0.03 0.03 33 1013.0
20260509195504 58 13 12.0 20.0 0.00 0.03 0.03 33 1014.7
20260509195003 57 307 7.0 19.0 0.00 0.03 0.03 34 1014.5
20260509194510 57 311 10.0 19.0 0.00 0.03 0.03 34 1012.9
20260509194006 57 341 11.0 19.0 0.00 0.03 0.03 33 1014.5
20260509193511 57 282 9.0 18.0 0.00 0.03 0.03 32 1014.7
20260509193022 57 50 10.0 18.0 0.00 0.03 0.03 34 1014.7
20260509193002 57 35 10.0 18.0 0.00 0.03 0.03 35 1012.9
20260509192507 57 312 10.0 18.0 0.00 0.03 0.03 36 1014.7
20260509192007 56 342 12.0 18.0 0.00 0.03 0.03 33 1014.6
20260509191522 57 357 9.0 21.0 0.00 0.03 0.03 33 1014.7
20260509191503 57 357 8.0 21.0 0.00 0.03 0.03 34 1012.9
20260509191009 56 314 9.0 21.0 0.00 0.03 0.03 34 1014.7
20260509190507 57 321 10.0 17.0 0.00 0.03 0.03 36 1014.6
20260509190100 57 321 9.0 17.0 0.00 0.03 0.03 35 1012.9
20260509190026 57 307 8.0 17.0 0.00 0.03 0.03 37 1014.6
20260509185508 56 300 7.0 17.0 0.00 0.03 0.03 35 1014.6
20260509185011 56 305 7.0 19.0 0.00 0.03 0.03 37 1014.6
20260509184602 56 323 10.0 19.0 0.00 0.03 0.03 36 1012.9
20260509184529 56 1 11.0 19.0 0.00 0.03 0.03 35 1014.6
20260509184003 56 56 11.0 17.0 0.00 0.03 0.03 35 1014.6
20260509183504 56 326 7.0 15.0 0.00 0.03 0.03 36 1014.6
20260509183136 55 354 6.0 15.0 0.00 0.03 0.03 38 1012.9
20260509183014 55 274 8.0 16.0 0.00 0.03 0.03 35 1014.6
20260509182504 55 25 5.0 16.0 0.00 0.03 0.03 37 1014.5
20260509182010 55 309 10.0 16.0 0.00 0.03 0.03 37 1014.5
20260509181612 54 335 9.0 16.0 0.00 0.03 0.03 37 1012.9
20260509181519 55 341 9.0 16.0 0.00 0.03 0.03 35 1014.5
20260509181006 55 15 10.0 16.0 0.00 0.03 0.03 36 1014.4
20260509180511 54 18 6.0 13.0 0.00 0.03 0.03 39 1014.4
20260509180053 54 300 8.0 13.0 0.00 0.03 0.03 37 1012.8
20260509180021 55 303 8.0 13.0 0.00 0.03 0.03 37 1014.5
20260509175507 55 338 8.0 18.0 0.00 0.03 0.03 37 1014.5
20260509175009 55 3 7.0 18.0 0.00 0.03 0.03 38 1014.4
20260509174553 55 328 5.0 16.0 0.00 0.03 0.03 39 1012.6
20260509174539 55 290 4.0 18.0 0.00 0.03 0.03 40 1014.4
20260509174014 54 39 6.0 19.0 0.00 0.03 0.03 38 1014.5
20260509173508 53 30 11.0 19.0 0.00 0.03 0.03 39 1014.4
20260509173053 53 321 8.0 18.0 0.00 0.03 0.03 39 1012.6
20260509173025 53 314 9.0 21.0 0.00 0.03 0.03 38 1014.4
20260509172505 53 323 10.0 21.0 0.00 0.03 0.03 39 1014.4
20260509172002 53 316 8.0 19.0 0.00 0.03 0.03 40 1014.2
20260509171549 53 9 10.0 17.0 0.00 0.03 0.03 41 1012.5
20260509171512 53 340 11.0 17.0 0.00 0.03 0.03 40 1014.3
20260509171006 53 14 7.0 16.0 0.00 0.03 0.03 41 1014.3
20260509170504 53 18 11.0 16.0 0.00 0.03 0.03 42 1014.3
20260509170052 52 351 7.0 18.0 0.00 0.03 0.03 42 1012.6
20260509170019 53 31 8.0 18.0 0.00 0.03 0.03 41 1014.4